Miscellaneous Local Product
Issued by NWS Hastings, NE

Home | Current Version | Previous Version | Text Only | Print | Product List | Glossary On
Versions: 1 2 3 4 5 6 7 8 9 10 11 12 13 14 15 16 17 18 19 20 21 22 23 24 25 26 27 28 29 30 31 32 33 34 35 36 37 38 39 40 41 42 43 44 45 46 47 48 49 50
000
AXUS43 KGID 191702
MISGRI

GID CWA HOURLY WEATHER ROUNDUP
NATIONAL WEATHER SERVICE HASTINGS NE
1200 PM CDT SAT APR 19 2014

NOTE: "FAIR" INDICATES FEW OR NO CLOUDS BELOW 12,000 FEET WITH NO
SIGNIFICANT WEATHER AND/OR OBSTRUCTIONS TO VISIBILITY.

...SOUTH CENTRAL NEBRASKA...

CITY           SKY/WX    TMP DP  RH WIND       PRES   REMARKS
GRAND ISLAND   CLOUDY    69  48  47 SW16      29.99S
HASTINGS       PTSUNNY   70  47  43 SW14G24   29.97R
KEARNEY        CLOUDY    64  50  59 S9        29.98S
ORD            CLOUDY    64  47  53 NE7       29.98S
YORK           PTSUNNY   70  48  46 S22G29    30.00S
AURORA         PTSUNNY   70  50  47 S14G23    29.99S
LEXINGTON      CLOUDY    63  49  61 E3        29.97S
HOLDREGE       CLOUDY    64  47  54 S7        29.97R
HEBRON         PTSUNNY   71  48  43 S21G31    30.01F

...NEBRASKA PANHANDLE...

CITY           SKY/WX    TMP DP  RH WIND       PRES   REMARKS
CHADRON        PTSUNNY   54  33  45 CALM      30.06S
ALLIANCE       PTSUNNY   54  21  27 NE13      30.07R
SCOTTSBLUFF    CLOUDY    55  27  34 E8        30.07S
SIDNEY         CLOUDY    54  31  41 NE15      30.08R

...WESTERN AND NORTH CENTRAL NEBRASKA...

CITY           SKY/WX    TMP DP  RH WIND       PRES   REMARKS
VALENTINE      PTSUNNY   59  27  29 N10       30.05S
AINSWORTH      PTSUNNY   60  32  34 N8        30.04S
ONEILL         CLOUDY    63  39  40 N10G18    30.02R
BROKEN BOW     CLOUDY    60  47  61 NE10      29.99R
IMPERIAL       PTSUNNY   62  42  47 N21G29    29.99R
NORTH PLATTE   CLOUDY    60  42  51 NE17      29.99S
MCCOOK         PTSUNNY   64  48  56 N12       29.97R

...EASTERN NEBRASKA...

CITY           SKY/WX    TMP DP  RH WIND       PRES   REMARKS
NORFOLK        MOSUNNY   68  46  45 SW13      30.00R
SO SIOUX CITY  MOSUNNY   73  46  38 SW20G31   30.01F
TEKAMAH        PTSUNNY   74  46  36 S28G33    30.02F
COLUMBUS       CLOUDY    70  48  46 S15G22    30.01F
ALBION         CLOUDY    64  46  52 W8        30.01R
OMAHA EPPLEY   PTSUNNY   72  44  36 S22       30.04F
OFFUTT AFB     MOSUNNY   72  46  38 S18G29    30.05F
MILLARD        MOSUNNY   71  46  40 S13G21    30.04F
LINCOLN        PTSUNNY   73  47  39 S24G31    30.02F
NEBRASKA CITY  MOSUNNY   73  43  33 S23G31    30.08S
BEATRICE       PTSUNNY   73  46  38 S20G28    30.04F
FALLS CITY     NOT AVBL

...NORTHERN KANSAS...

CITY           SKY/WX    TMP DP  RH WIND       PRES   REMARKS
GOODLAND       PTSUNNY   64  45  49 N22G29    29.98R
HILL CITY      MOSUNNY   73  46  38 SW12G22   29.92S
PHILLIPSBURG   SUNNY     72  46  40 S15G21    29.94F
SMITH CENTER   SUNNY     70  48  46 S17G25    29.96F
BELOIT         SUNNY     75  48  38 S17G31    29.98R
HAYS           SUNNY     72  50  46 S32G38    29.93F
RUSSELL        MOSUNNY   76  49  38 S37G46    29.94F
CONCORDIA      PTSUNNY   72  48  42 S26G35    30.01S
SALINA         MOSUNNY   75  47  36 S31G46    30.02F
TOPEKA         PTSUNNY   75  45  34 S22G30    30.11F



USA.gov is the U.S. government's official web portal to all federal, state and local government web resources and services.